Regional Weather Roundup
Issued by NWS Tiyan, Guam

Home | Current Version | Previous Version | Text Only | Print | Product List | Glossary On
Versions: 1 2 3 4 5 6 7 8 9 10 11 12 13 14 15 16 17 18 19 20 21 22 23 24 25 26 27 28 29 30 31 32 33 34 35 36 37 38 39 40 41 42 43 44 45 46 47 48 49 50
000
ASGM40 PGUM 040414
RWRGUM
WEATHER ROUNDUP FOR THE MARIANAS
NATIONAL WEATHER SERVICE TIYAN GU
200 PM CHST SAT JUL 04 2015

GUZ001>004-040500-
MARIANA ISLANDS-

CITY           SKY/WX    TMP DP  RH WIND       PRES   REMARKS
GUAM AIRPORT   PTSUNNY   88  77  70 NE20      29.55F HX 100
ANDERSEN AFB   PTSUNNY   82  75  78 NE18G25   29.56F
ROTA AIRPORT   NOT AVBL
TINIAN AP      NOT AVBL
SAIPAN AP      PTSUNNY   90  79  70 NE22G35   29.55S HX 105

$$



USA.gov is the U.S. government's official web portal to all federal, state and local government web resources and services.